Location: Beaufort Park
(39.1418°N, 76.9433°W)
Time: 20:17:11
(UTC+00:00)

SL-08 R/B - Pass Details

Date: 29 October 2020
Orbit: 946 x 994 km, 83.0° (Epoch: 02 December)

Event Time Altitude Azimuth Distance (km) Brightness Sun altitude
Rises 23:16:25 0° 353° (N) 3,649 7.5 -13.5°
Reaches altitude 10° 23:18:57 10° 355° (N) 2,693 6.8 -14.0°
Maximum altitude 23:25:06 82° 82° (E) 963 4.4 -15.1°
Drops below altitude 10° 23:31:11 10° 171° (S) 2,658 6.7 -16.3°
Sets 23:33:39 0° 173° (S) 3,598 7.4 -16.8°
